459P/Catalina (2023)

Japanese version
Home page
Updated on July 27, 2024

---------------------------------------------------------------------

* Profile

* Pictures

* Orbital Elements

Epoch 2024 Mar. 31.0 TT = JDT 2460400.5
T 2023 Feb. 21.43306 TT                                 Rudenko
q   1.3681164            (2000.0)            P               Q
n   0.16901684     Peri.  205.20183     -0.20792996     -0.97054839
a   3.2397840      Node   256.98950     +0.91725172     -0.15027311
e   0.5777137      Incl.    7.17294     +0.33972697     -0.18829184
P   5.83
>From 647 observations 2017 Jan. 3-2024 June 2, mean residual 0".5.

* Finding Charts

* Magnitudes Graph

        H = 16.0  G = 0.15                [    ,-140]  (             - 2022 Oct.  4)
        m1 = 15.2 + 5 log d + 10.0 log r  [-140, 170]  (2022 Oct.  4 - 2023 Aug. 10)
        H = 16.0  G = 0.15                [ 170,    ]  (2023 Aug. 10 -             )

---------------------------------------------------------------------

The orbital elements are published on M.P.E.C. 2024-L77.
The charts are made with StellaNavigator Ver.11 (AstroArts).
The magnitudes graphs are made with Comet for Windows.

---------------------------------------------------------------------

Copyright(C) Seiichi Yoshida (comet@aerith.net). All rights reserved.